Regional Weather Roundup
Issued by NWS

Home | Current Version | Previous Version | Text Only | Print | Product List | Glossary Off
Versions: 1 2 3 4 5 6 7 8 9 10 11 12 13 14 15 16 17 18 19 20 21 22 23 24 25 26 27 28 29 30 31 32 33 34 35 36 37 38 39 40 41 42 43 44 45 46 47 48 49 50

219
ASUS43 KLOT 242208
RWRIL

ILLINOIS REGIONAL WEATHER ROUNDUP
NATIONAL WEATHER SERVICE CHICAGO/ROMEOVILLE IL
400 PM CST FRI NOV 24 2017

NOTE: "FAIR" INDICATES FEW OR NO CLOUDS BELOW 12,000 FEET WITH NO
SIGNIFICANT WEATHER AND/OR OBSTRUCTIONS TO VISIBILITY.

* THESE STATIONS ARE NOT UNDER NWS QUALITY CONTROL. THEY ALSO MAY NOT
  REPORT WEATHER SUCH AS PRECIPITATION OR FOG.

ILZ001-002-007-009-015-016-024-242300-
NORTHWEST ILLINOIS

CITY           SKY/WX    TMP DP  RH WIND       PRES   REMARKS
MOLINE         CLEAR     70  38  31 SW15G22   29.42R
STERLING*      CLEAR     63  41  44 VRB3      29.44R
SAVANNA*       CLEAR     67  39  36 SW14      29.41R
$$

ILZ003-004-008-010-011-017-018-242300-
NORTH CENTRAL ILLINOIS

CITY           SKY/WX    TMP DP  RH WIND       PRES   REMARKS
ROCKFORD       PTCLDY    59  40  49 S15       29.42F
FREEPORT*      CLEAR     63  41  44 SW16      29.43R
ROCHELLE*      CLEAR     59  41  52 S21       29.43F
DE KALB*       CLEAR     58  42  54 S18       29.45S
PERU*          CLEAR     60  40  47 S22       29.46F
$$

ILZ005-006-012>014-019>023-242300-
NORTHEAST ILLINOIS

CITY           SKY/WX    TMP DP  RH WIND       PRES   REMARKS
CHICAGO-OHARE  PTCLDY    61  38  42 S21G33    29.45F
CHICAGO-MIDWAY PTCLDY    60  39  45 S18G28    29.48F
AURORA         CLEAR     61  40  45 S18G31    29.46F
LANSING*       CLEAR     57  41  56 S20G29    29.52F
JOLIET*        CLEAR     61  41  47 S15G26    29.49F
WAUKEGAN       CLEAR     61  39  44 S21G37    29.41F
DUPAGE AIRPORT CLEAR     60  40  47 S22G32    29.45F
KANKAKEE*      CLEAR     56  39  53 S21G26    29.55F
WHEELING       CLEAR     62  39  42 S20G33    29.46F
MORRIS*        CLEAR     59  40  48 S18G26    29.48F
ROMEOVILLE*    CLEAR     59  40  49 S16G26    29.49S
NORTHERLY ISL    N/A     59  36  42 S17         N/A
$$

LMZ740>746-242300-
SOUTHERN LAKE MICHIGAN

STATION/POSITION SKY/WX   TEMP    WIND        PRES    VSBY  WAVE
                          AIR SEA DIR/SP/G                  HT/PER
                          (F)     (DEG/KT/KT) (MB)    (MI)  (FT/S)
SOUTHERN BUOY              51 47  170/ 23/ 27  997.3          6/ 6
HARRISON CRIB              59     190/ 34/ 38   N/A
BURNHAM HARBOR             59     200/ 16/ 23   N/A
CALUMET HARBOR             59     180/ 18/ 24  998.6F
BURNS HARBOR               58     180/ 18/ 25  999.7F
MICHIGAN CITY              58     170/ 20/ 27   N/A
$$

ILZ025>027-034>036-040-047-049-050-058-095>099-242300-
WEST-CENTRAL ILLINOIS

CITY           SKY/WX    TMP DP  RH WIND       PRES   REMARKS
QUINCY         CLEAR     70  37  29 SW18G30   29.51S
GALESBURG*     CLEAR     68  42  38 S17G24    29.48R
MACOMB*        CLEAR     69  38  31 SW21G28   29.50S
JACKSONVILLE*  CLEAR     68  38  32 MISG      29.55S
PITTSFIELD*    CLEAR     71  38  29 S16       29.55F
$$

ILZ028>032-037-038-041>044-048-051>054-059>061-242300-
CENTRAL ILLINOIS

CITY           SKY/WX    TMP DP  RH WIND       PRES   REMARKS
PONTIAC        CLEAR     62  40  45 S25G32    29.53S
BLOOMINGTON    CLEAR     59  41  51 S22       29.56R
DECATUR        CLEAR     61  40  45 S17G25    29.60F
PEORIA         CLEAR     65  39  38 S17G28    29.50F
LACON*         CLEAR     64  39  39 S15G22    29.47S
LINCOLN*       CLEAR     63  43  47 S15G22    29.56S
SPRINGFIELD    CLEAR     65  41  41 S17       29.57S
TAYLORVILLE    CLEAR     61  40  46 S18       29.60F
$$

ILZ033-039-045-046-055>057-062-063-242300-
EAST-CENTRAL ILLINOIS

CITY           SKY/WX    TMP DP  RH WIND       PRES   REMARKS
CHAMPAIGN      CLEAR     57  38  48 S24G30    29.61F
DANVILLE*      CLEAR     55  37  50 S17       29.61F
RANTOUL*       CLEAR     58  41  54 S17G23    29.61S
MATTOON        CLEAR     57  37  47 S14G25    29.64F
PARIS*         CLEAR     55  37  52 S18       29.67F
$$

ILZ079-100>102-242300-
SOUTHWEST ILLINOIS

CITY           SKY/WX    TMP DP  RH WIND       PRES   REMARKS
ALTON          PTCLDY    68  43  40 S20G29    29.63S
BELLEVILLE     CLEAR     64  37  37 S16G23    29.65S
CAHOKIA*       CLEAR     69  35  28 S12       29.64S
SPARTA*        CLEAR     60  37  41 S15G21    29.71S
$$

ILZ064>066-069>071-074>076-080>082-084>086-088>090-092>094-242300-
SOUTH-CENTRAL ILLINOIS

CITY           SKY/WX    TMP DP  RH WIND       PRES   REMARKS
CARBONDALE     CLEAR     61  35  37 S22G28    29.74F
CAIRO*         CLEAR     61  37  41 S10G16    29.80S
EFFINGHAM*     CLEAR     60  37  41 SE13G18   29.69F
MARION         PTCLDY    61  36  39 S14       29.76F
MT. VERNON     CLEAR     60  36  40 S12       29.72F
CENTRALIA*     CLEAR     61  38  42 S15G24    29.70R
SALEM*         CLEAR     63  34  34 S18       29.69S
METROPOLIS*    CLEAR     62  34  36 S7        29.81S
$$

ILZ067-068-072-073-078-083-087-091-242300-
SOUTHEAST ILLINOIS

CITY           SKY/WX    TMP DP  RH WIND       PRES   REMARKS
LAWRENCEVILLE  CLEAR     57  37  47 S14       29.75F
FLORA*         CLEAR     60  37  41 S16       29.71F
FAIRFIELD*     CLEAR     59  36  42 S3        29.73R
HARRISBURG*    CLEAR     61  35  37 S10       29.77S
ROBINSON*      CLEAR     55  35  45 S10       29.73F
CARMI*         CLEAR     59  36  41 S13       29.76S
$$

ABBREVIATIONS USED IN REMARKS
   TC - TEMPERATURE IN CELSIUS
  WCI - WIND CHILL INDEX
   HX - HEAT INDEX
  VSB - VISIBILITY
$$





USA.gov is the U.S. government's official web portal to all federal, state and local government web resources and services.